Startseite
Über Mich
AHP4
Galerie
Sehschlangen
Tourenbuch
Bookmarks
Elektronik
Bewertung
Geschichten
[Tagesmessung] [Jahreswerte] [Information]

Messwerte vom 15.05.2022

Die letzten Messwerte von 23:58:46 Uhr:
KategorieMesswert
Temperatur [°C]11
Luftdruck [mBar]1003
Sonneneinstrahlung0
Wind [km/h]0 aus Nordost
Niederschlag [l/m²]0
rel.Luftfeucht.70%
CO2 [ppm]550

Diagramme
Messwerte vom 15.05.2022
Tagesaggregation
KategorieMinimumMaximumSchnittSumme
Temperatur [°C]42815.2354
Luftdruck [mBar]100210071004.9896
Sonneneinstrahlung247135.2500
Wind [km/h]14
rF [%]27.896.662.67
Niederschlag [l/m²]0
CO2 [ppm]393664506.4
Einordnung alsVegetationstag
Sommertag

Messungen an benachbarten Tagen: Zur Jahresaggregation 2022
Tabelle aller Messwerte
UhrzeitTemperatur [°C]Luftdruck [mBar]SonneWind [km/h]RichtungRegen [l/m²]rF [%]CO2 [ppm]
00:01:49 10 1006 0 0 SO 0 74.5 538
00:04:46 10 1006 0 0 SO 0 75 539
00:07:47 10 1006 0 0 SO 0 75.6 545
00:10:48 10 1006 0 0 SO 0 76.1 551
00:13:48 10 1006 0 0 S 0 76.8 554
00:16:47 9 1006 0 0 NW 0 78.4 553
00:19:47 9 1006 0 0 NW 0 79.1 555
00:22:50 9 1006 0 0 NW 0 79.4 557
00:25:47 9 1006 0 0 NW 0 79.2 559
00:28:48 9 1006 0 0 NW 0 78.7 559
00:31:49 9 1006 0 0 NW 0 78.7 563
00:34:48 9 1006 0 0 NW 0 79 562
00:37:49 9 1006 0 0 NW 0 79.3 563
00:40:50 9 1006 0 0 NW 0 80 568
00:43:47 9 1006 0 0 NW 0 80.8 571
00:46:48 9 1006 0 0 NW 0 81.3 571
00:49:48 8 1006 0 0 NW 0 81 571
00:52:47 8 1006 0 0 NW 0 80.8 586
00:55:48 8 1006 0 0 NW 0 81 586
00:58:48 8 1006 0 0 NW 0 81.3 583
01:01:49 8 1006 0 0 NW 0 82 585
01:04:48 8 1006 0 0 NW 0 83.4 583
01:07:48 8 1006 0 0 NW 0 84.4 592
01:10:48 8 1006 0 0 NW 0 85.1 588
01:13:47 8 1006 0 0 NW 0 84.7 586
01:16:48 8 1006 0 0 NW 0 84.2 589
01:19:47 8 1006 0 0 NW 0 84.4 597
01:22:49 8 1006 0 0 NW 0 85.6 601
01:25:48 8 1006 0 0 NW 0 86.4 597
01:28:48 8 1006 0 0 NW 0 87 599
01:31:49 8 1006 0 0 NW 0 86.9 597
01:34:49 8 1006 0 0 NW 0 86.7 599
01:37:48 7 1006 0 0 SO 0 86.3 604
01:40:49 7 1006 0 0 NW 0 87.2 603
01:43:48 7 1006 0 0 N 0 88.2 595
01:46:45 7 1006 0 0 N 0 89 597
01:49:45 7 1006 0 0 O 0 88.5 597
01:52:47 7 1006 0 0 NO 0 88 603
01:55:49 7 1006 0 0 SO 0 87.9 607
01:58:47 7 1006 0 0 O 0 88.5 603
02:01:47 7 1006 0 0 O 0 88.6 605
02:04:47 7 1006 0 0 O 0 89 600
02:07:49 7 1006 0 0 N 0 89.4 598
02:10:47 7 1006 0 0 NO 0 89.7 604
02:13:47 6 1006 0 0 NO 0 89.5 610
02:16:47 6 1006 0 0 NO 0 89.4 612
02:19:49 6 1006 0 0 NO 0 89.6 598
02:22:49 6 1005 0 0 NO 0 90 600
02:25:48 6 1006 0 0 NO 0 90.2 603
02:28:50 6 1006 0 0 NO 0 90.3 609
02:31:50 6 1006 0 0 NO 0 90.3 612
02:34:47 6 1006 0 0 NO 0 90.4 612
02:37:47 6 1006 0 0 NO 0 90.6 609
02:40:50 6 1006 0 0 NO 0 90.9 609
02:43:47 6 1006 0 0 NO 0 90.8 604
02:46:48 6 1006 0 0 NO 0 90.9 616
02:49:47 6 1006 0 0 NO 0 91.6 626
02:52:45 6 1006 0 0 N 0 92.1 621
02:55:47 6 1006 0 0 N 0 92.8 614
02:58:48 6 1006 0 0 N 0 92.6 618
03:01:48 6 1006 0 0 N 0 92.3 618
03:04:46 6 1006 0 0 N 0 92.3 620
03:07:47 6 1006 0 0 N 0 92.4 629
03:10:47 6 1006 0 0 N 0 92.3 635
03:13:46 6 1006 0 0 N 0 92.3 636
03:16:47 5 1006 0 0 N 0 92.2 632
03:19:45 5 1006 0 0 N 0 92.2 618
03:22:47 5 1006 0 0 N 0 92.3 615
03:25:46 5 1006 0 0 N 0 92.3 618
03:28:46 5 1006 0 0 N 0 92.3 620
03:31:46 5 1006 0 0 N 0 92.5 620
03:34:46 5 1006 0 0 N 0 92.4 624
03:37:44 5 1006 0 0 N 0 92.4 614
03:40:46 5 1006 0 0 N 0 92.6 618
03:43:45 5 1006 0 0 N 0 92.7 612
03:46:48 5 1006 0 0 N 0 92.9 612
03:49:45 5 1006 0 0 N 0 93.1 614
03:52:45 5 1006 0 0 N 0 93.1 618
03:55:45 5 1006 0 0 N 0 93 623
03:58:44 5 1006 0 0 N 0 93.2 623
04:01:48 5 1006 0 0 N 0 93.6 622
04:04:46 5 1006 0 0 N 0 93.8 620
04:07:45 5 1006 0 0 N 0 94.2 617
04:10:45 5 1006 0 0 N 0 94.3 618
04:13:45 5 1006 0 0 N 0 94.2 612
04:16:48 5 1006 0 0 N 0 94 618
04:19:45 5 1006 0 0 N 0 94.1 617
04:22:47 5 1006 0 0 N 0 94.2 619
04:25:46 5 1006 0 0 N 0 94.5 623
04:28:45 5 1006 0 0 N 0 94.4 623
04:31:45 5 1006 0 0 N 0 94.3 633
04:34:46 5 1006 0 0 N 0 94.2 634
04:37:45 5 1006 0 0 N 0 94.4 629
04:40:45 5 1006 0 0 N 0 94.7 626
04:43:48 5 1006 0 0 N 0 94.8 629
04:46:47 5 1006 0 0 N 0 94.6 626
04:49:46 5 1006 0 0 N 0 95 626
04:52:44 4 1006 3 0 N 0 94.8 621
04:55:45 4 1006 5 0 N 0 94.6 623
04:58:46 4 1006 7 0 N 0 94.9 629
05:01:46 4 1006 11 0 N 0 95 631
05:04:47 4 1006 16 0 N 0 95 635
05:07:47 4 1006 22 0 N 0 95.1 629
05:10:47 4 1006 29 0 N 0 95.4 629
05:13:46 4 1006 38 0 N 0 95.6 626
05:16:47 4 1006 47 0 N 0 95.6 632
05:19:47 4 1006 57 0 N 0 95.5 629
05:22:45 4 1006 67 0 N 0 95.4 632
05:25:46 4 1006 77 0 N 0 95.4 629
05:28:48 4 1006 87 0 N 0 95.6 626
05:31:48 4 1006 96 0 N 0 95.8 623
05:34:47 4 1006 105 0 NO 0 96 619
05:37:46 4 1006 113 0 NO 0 96.2 615
05:40:48 4 1006 120 0 NO 0 96.2 626
05:43:49 4 1006 126 0 NO 0 96.1 626
05:46:47 4 1006 132 0 NO 0 96.1 630
05:49:49 4 1006 138 0 NO 0 96.4 629
05:52:47 4 1006 142 0 NO 0 96.6 626
05:55:52 4 1006 146 0 NO 0 96.5 630
05:58:50 4 1006 150 0 NO 0 96.4 627
06:01:49 4 1006 153 0 NO 0 96.3 630
06:04:51 4 1006 156 0 NO 0 96.2 629
06:07:50 4 1006 159 0 NO 0 96.3 627
06:10:50 5 1006 161 0 NO 0 96.4 630
06:13:49 5 1006 163 0 NO 0 96.5 629
06:16:49 5 1006 165 0 NO 0 96.3 626
06:19:49 5 1006 167 0 NO 0 96.2 625
06:22:49 5 1006 168 0 NO 0 96.2 627
06:25:50 5 1006 169 0 NO 0 96.2 629
06:28:47 5 1006 171 0 NO 0 96.2 635
06:31:49 5 1006 172 0 NO 0 96.3 630
06:34:50 5 1007 173 0 NO 0 96.5 618
06:37:51 5 1006 175 0 NO 0 96.4 609
06:40:51 6 1006 177 0 NO 0 96.4 620
06:43:48 6 1006 178 0 NO 0 96.3 626
06:46:48 6 1006 180 0 NO 0 96 633
06:49:48 6 1006 181 0 NO 0 95.7 646
06:52:48 7 1006 181 0 NO 0 95.4 653
06:55:47 8 1006 182 0 NO 0 95.8 664
06:58:50 8 1006 182 0 NO 0 95.2 662
07:01:50 8 1006 183 0 NO 0 94.4 658
07:04:49 9 1006 183 0 NO 0 94.8 648
07:07:49 10 1006 183 0 NO 0 94.3 639
07:10:48 11 1006 183 0 NO 0 93.5 643
07:13:50 12 1006 183 0 NO 0 92.8 638
07:16:49 14 1006 183 0 NO 0 87.6 639
07:19:50 13 1006 183 0 NO 0 82.4 641
07:22:48 16 1006 183 0 NO 0 78.2 635
07:25:34 12 1006 183 0 NO 0 71.2 633
07:28:49 14 1006 183 0 NO 0 75.1 627
07:31:49 15 1006 183 0 NO 0 73.6 627
07:34:48 15 1007 183 0 NO 0 72.2 627
07:37:50 15 1006 184 0 NO 0 69 624
07:40:48 16 1006 184 0 NO 0 68.8 633
07:43:48 16 1006 184 0 NO 0 67.7 627
07:46:49 17 1006 184 0 O 0 65.9 626
07:49:47 19 1007 184 0 O 0 64.8 618
07:52:47 17 1007 184 0 O 0 64.6 618
07:55:49 16 1006 185 0 O 0 67.9 615
07:58:47 14 1006 185 0 O 0 69.4 609
08:01:48 14 1006 185 0 O 0 72.8 612
08:04:47 13 1006 185 0 O 0 74 600
08:07:49 13 1006 185 2 NO 0 74.7 594
08:10:47 13 1006 185 0 O 0 76.2 588
08:13:48 13 1006 185 0 O 0 76.6 589
08:16:51 13 1006 185 1 NO 0 77.2 583
08:19:49 13 1006 185 0 O 0 77.7 579
08:22:46 13 1006 186 0 O 0 77.8 577
08:25:48 13 1006 186 0 SO 0 76.8 574
08:28:50 13 1006 186 0 SO 0 75.8 578
08:31:49 13 1006 186 3 NO 0 75.3 577
08:34:48 13 1006 186 1 NO 0 74.5 574
08:37:50 13 1006 186 0 O 0 73.8 568
08:40:49 14 1006 186 1 NO 0 73.3 563
08:43:48 14 1006 187 3 NO 0 72.1 562
08:46:49 14 1006 187 6 NO 0 70.7 559
08:49:47 14 1007 187 1 O 0 72.6 556
08:52:49 14 1006 187 4 NO 0 72.9 562
08:55:48 14 1006 187 3 NO 0 71.3 553
08:58:47 14 1006 187 3 O 0 71 548
09:01:49 14 1006 188 1 NO 0 70.6 538
09:04:49 14 1006 188 2 NO 0 71 539
09:07:48 14 1006 188 1 S 0 71 540
09:10:47 14 1006 188 3 N 0 70.7 548
09:13:48 14 1006 189 0 S 0 68.9 545
09:16:49 14 1006 190 0 O 0 69.3 545
09:19:47 14 1006 191 1 SO 0 69.1 547
09:22:48 14 1006 192 4 N 0 68.7 542
09:25:48 14 1006 193 1 NO 0 68.6 542
09:28:48 15 1006 194 2 SO 0 69.1 539
09:31:47 15 1006 195 4 N 0 69 528
09:34:48 15 1006 195 3 NO 0 68.4 527
09:37:49 15 1006 196 2 SO 0 67.7 518
09:40:48 15 1006 197 2 SO 0 67.9 521
09:43:51 15 1006 197 4 NW 0 67.6 531
09:46:50 15 1006 197 6 NO 0 66.9 527
09:49:47 15 1006 197 9 S 0 66.3 524
09:52:50 15 1006 198 2 N 0 66.5 521
09:55:49 15 1006 198 1 SO 0 66.3 521
09:58:49 15 1006 198 2 NW 0 65.6 516
10:01:48 15 1006 198 0 S 0 64.8 519
10:04:47 15 1006 198 7 NO 0 65.4 512
10:07:48 15 1006 198 3 W 0 64.4 521
10:10:49 15 1006 198 0 NO 0 64.9 519
10:13:47 15 1006 198 1 O 0 64.3 516
10:16:47 15 1006 198 2 SW 0 63.9 515
10:19:48 16 1006 198 4 SO 0 64.4 509
10:22:48 16 1006 198 3 NW 0 63.7 504
10:25:48 16 1006 199 14 S 0 62.8 506
10:28:50 16 1006 199 8 N 0 61.3 507
10:31:46 16 1006 199 0 N 0 61.5 507
10:34:49 16 1006 199 0 S 0 62.3 500
10:37:48 16 1006 199 1 N 0 59.4 500
10:40:48 16 1006 199 4 SO 0 58.8 498
10:43:49 16 1006 199 2 S 0 59.4 497
10:46:47 17 1006 199 4 SO 0 59.4 492
10:49:49 17 1006 199 6 S 0 58.3 486
10:52:49 17 1006 199 1 S 0 58.4 478
10:55:47 17 1006 199 3 S 0 55.4 477
10:58:48 17 1006 200 2 SO 0 55.9 483
11:01:49 17 1006 200 2 SO 0 55.3 483
11:04:47 17 1006 200 3 S 0 55 480
11:07:48 17 1006 200 0 O 0 54.7 479
11:10:47 17 1006 200 2 S 0 55.3 483
11:13:49 18 1006 200 4 SO 0 57 486
11:16:48 18 1006 200 1 S 0 56.3 480
11:19:49 18 1006 201 9 W 0 54.3 481
11:22:50 18 1006 200 3 NW 0 54.1 475
11:25:47 18 1006 201 2 O 0 53.8 471
11:28:47 18 1006 201 0 N 0 52.5 473
11:31:50 18 1006 201 2 NO 0 52 471
11:34:49 18 1006 201 7 S 0 52.6 465
11:37:48 18 1006 201 2 SO 0 52.7 465
11:40:47 19 1006 202 3 S 0 51.9 459
11:43:48 19 1006 202 0 SW 0 51.2 463
11:46:47 19 1006 202 0 SW 0 51.1 463
11:49:47 19 1006 203 6 0 50.9 463
11:52:50 19 1006 203 5 NO 0 50.1 457
11:55:31 18 1006 203 7 S 0 43.1 460
11:58:47 20 1006 204 1 N 0 48.2 457
12:01:31 18 1006 204 4 0 40 442
12:04:49 21 1006 204 7 SO 0 49.7 448
12:07:47 22 1006 205 2 S 0 45.5 450
12:10:47 21 1006 205 3 O 0 43.7 455
12:13:49 21 1006 205 2 NO 0 42.3 454
12:16:50 21 1006 206 6 N 0 42.8 445
12:19:48 21 1006 206 0 S 0 43.5 439
12:22:47 21 1006 207 2 S 0 44.3 436
12:25:49 22 1006 207 3 SO 0 43.7 445
12:28:49 22 1006 207 4 SO 0 43.1 448
12:31:48 22 1006 208 4 N 0 41.5 446
12:34:47 22 1006 208 0 S 0 40 445
12:37:50 22 1006 208 3 NW 0 40.6 445
12:40:48 22 1006 209 4 N 0 39.4 446
12:43:47 22 1006 210 3 W 0 39.7 445
12:46:47 23 1006 210 1 S 0 41.1 433
12:49:50 24 1006 211 0 O 0 37.9 443
12:52:49 24 1006 211 5 S 0 39.5 442
12:55:48 24 1006 212 0 O 0 38.1 450
12:58:49 25 1006 212 3 SW 0 37.1 437
13:01:33 23 1006 212 7 SO 0 40 433
13:04:47 24 1006 213 8 NO 0 33.5 433
13:07:48 23 1006 213 2 W 0 34.1 433
13:10:49 24 1006 214 1 S 0 37.4 431
13:13:48 24 1006 214 3 N 0 35.7 427
13:16:49 24 1006 214 12 NW 0 35.4 427
13:19:48 23 1006 214 4 NW 0 35.5 431
13:22:46 23 1006 215 2 SO 0 36.5 427
13:25:30 23 1006 215 4 O 0 40 424
13:28:48 23 1006 216 4 N 0 34.7 424
13:31:49 22 1006 216 8 NO 0 34.9 422
13:34:50 23 1006 216 2 NW 0 38 416
13:37:49 23 1006 218 3 NW 0 38.3 413
13:40:48 23 1006 220 3 S 0 36.7 413
13:43:47 23 1006 222 4 N 0 36.5 420
13:46:48 23 1006 223 4 NO 0 35.3 418
13:49:51 23 1006 224 3 SO 0 36.5 422
13:52:48 23 1006 226 4 N 0 37.5 421
13:55:51 23 1006 227 12 NW 0 37.4 419
13:58:48 23 1006 228 2 S 0 38.1 421
14:01:49 23 1006 229 9 O 0 38.8 419
14:04:49 24 1005 229 6 SO 0 37.7 416
14:07:46 23 1005 232 9 N 0 36.4 410
14:10:48 23 1006 234 0 N 0 35.8 414
14:13:47 23 1006 234 7 SO 0 36.4 413
14:16:48 25 1005 238 5 N 0 35.5 416
14:19:47 25 1006 238 5 NO 0 35.3 415
14:22:48 24 1005 239 3 NW 0 35 411
14:25:53 24 1006 240 6 N 0 34.8 407
14:28:47 24 1006 241 0 O 0 35.9 403
14:31:50 24 1006 241 2 NO 0 35.3 393
14:34:46 24 1005 241 5 NO 0 35 404
14:37:47 23 1006 242 4 N 0 35.5 404
14:40:48 23 1006 242 2 O 0 35.9 407
14:43:48 24 1005 242 3 S 0 36.3 407
14:46:50 24 1006 243 0 SO 0 36.4 408
14:49:48 24 1006 243 8 SO 0 36.7 407
14:52:48 25 1006 243 1 O 0 33 404
14:55:49 25 1005 243 2 NW 0 32.6 407
14:58:47 24 1005 244 1 O 0 32.8 404
15:01:49 24 1005 244 6 SO 0 33.6 407
15:04:49 24 1005 244 5 NO 0 33.6 407
15:07:48 24 1005 244 0 NW 0 34.8 404
15:10:33 23 1005 244 7 SO 0 40 407
15:13:45 26 1006 245 7 S 0 35.9 407
15:16:47 26 1005 245 1 NW 0 34.1 407
15:19:48 26 1006 245 0 SO 0 32 404
15:22:47 26 1005 245 2 S 0 31.1 407
15:25:50 27 1005 245 0 NO 0 32.5 404
15:28:48 27 1005 245 4 NO 0 31.9 405
15:31:48 27 1005 246 1 O 0 30.5 407
15:34:49 26 1005 246 2 N 0 30.4 404
15:37:48 25 1005 246 7 NO 0 31.9 407
15:40:48 24 1005 246 10 N 0 32.7 407
15:43:52 24 1005 246 1 SW 0 35 406
15:46:48 24 1004 246 5 NO 0 34.7 407
15:49:48 24 1004 246 1 NO 0 33.3 406
15:52:48 25 1005 246 9 SW 0 33.5 404
15:55:46 26 1005 246 1 N 0 35 404
15:58:47 26 1005 246 2 SO 0 33.2 404
16:01:45 26 1004 246 4 O 0 31.1 407
16:04:49 25 1005 247 8 NW 0 31.5 404
16:07:47 24 1004 247 4 NO 0 33.2 401
16:10:47 25 1004 247 5 N 0 34 404
16:13:46 25 1005 247 6 N 0 34.1 407
16:16:46 25 1005 247 0 O 0 33.7 404
16:19:49 26 1005 247 3 N 0 34.2 406
16:22:46 26 1005 247 2 NO 0 33.5 404
16:25:46 26 1005 247 4 N 0 31.9 404
16:28:48 25 1004 247 1 O 0 31.8 404
16:31:47 26 1004 247 3 S 0 32.3 407
16:34:49 27 1004 247 2 NO 0 33.1 407
16:37:49 27 1004 247 7 N 0 31 407
16:40:49 26 1004 247 2 SO 0 30.6 403
16:43:46 27 1004 247 1 S 0 31.3 404
16:46:46 27 1004 247 1 S 0 30.5 404
16:49:49 28 1004 247 0 SO 0 29 407
16:52:48 28 1004 247 4 N 0 27.8 405
16:55:49 28 1003 247 0 NO 0 28.5 404
16:58:47 27 1004 247 0 W 0 29.1 407
17:01:47 28 1004 247 1 O 0 29.9 404
17:04:48 28 1004 246 2 S 0 29 407
17:07:47 27 1004 247 6 N 0 29.2 404
17:10:47 27 1004 247 1 N 0 28.9 404
17:13:48 27 1004 246 4 NO 0 30 404
17:16:46 27 1004 246 2 N 0 29.6 407
17:19:46 27 1004 246 3 0 29.2 404
17:22:47 27 1003 247 4 W 0 30.1 407
17:25:48 27 1004 247 5 NO 0 29.9 407
17:28:48 27 1003 246 1 O 0 29.6 403
17:31:47 27 1003 246 1 O 0 30.3 403
17:34:48 27 1004 246 2 NO 0 30.2 407
17:37:49 26 1003 245 1 SO 0 30.6 405
17:40:47 26 1004 245 3 N 0 30.7 407
17:43:49 26 1003 244 2 NO 0 29.7 407
17:46:49 26 1004 243 0 O 0 32 404
17:49:49 25 1003 243 3 O 0 32.5 406
17:52:48 24 1003 245 2 N 0 31.8 404
17:55:48 24 1004 245 4 N 0 32.1 404
17:58:46 25 1003 245 2 N 0 33.2 404
18:01:48 26 1003 245 2 S 0 33.6 407
18:04:48 27 1003 247 0 NO 0 33.3 404
18:07:49 27 1003 247 3 SO 0 29.5 404
18:10:48 27 1003 247 5 O 0 28.7 406
18:13:48 26 1003 247 1 S 0 28.2 404
18:16:48 25 1002 244 3 NO 0 29.7 406
18:19:49 24 1003 229 2 O 0 31.8 404
18:22:48 24 1003 229 0 O 0 33.1 404
18:25:49 24 1003 225 0 NW 0 33.9 406
18:28:50 24 1003 225 1 O 0 34.6 404
18:31:51 24 1003 223 3 N 0 33.9 407
18:34:47 24 1002 220 1 O 0 33.7 405
18:37:47 24 1003 224 2 O 0 34.7 407
18:40:50 25 1003 239 0 NO 0 34.7 407
18:43:49 25 1003 240 0 SO 0 33.8 406
18:46:45 24 1003 244 5 N 0 32.7 407
18:49:48 23 1002 215 7 NO 0 33.5 407
18:52:47 22 1003 217 1 N 0 34.7 407
18:55:48 22 1003 211 1 SO 0 36.5 404
18:58:47 21 1002 210 1 O 0 37.4 404
19:01:49 21 1003 210 2 S 0 38.8 407
19:04:49 21 1002 208 0 S 0 39.6 405
19:07:48 21 1003 208 0 SO 0 40.2 406
19:10:49 21 1002 206 1 SO 0 40.2 404
19:13:49 20 1003 205 0 O 0 41.5 406
19:16:47 20 1003 206 0 O 0 42.4 407
19:19:48 20 1002 206 0 S 0 42.5 406
19:22:47 20 1003 207 0 0 43.2 408
19:25:49 20 1002 204 0 SO 0 44 404
19:28:46 20 1003 203 1 S 0 44.8 407
19:31:49 20 1002 201 0 O 0 45.2 405
19:34:49 19 1003 200 0 SO 0 45.6 404
19:37:48 19 1002 200 0 O 0 45.8 407
19:40:50 19 1003 202 0 SO 0 46.2 404
19:43:47 19 1003 201 0 SO 0 46.3 404
19:46:49 19 1002 199 0 O 0 47.1 407
19:49:49 19 1002 196 0 O 0 47.2 402
19:52:46 19 1003 194 0 O 0 47.5 406
19:55:46 19 1003 192 0 N 0 48.1 407
19:58:47 19 1003 190 1 N 0 48.8 403
20:01:50 18 1003 187 0 SO 0 49.2 407
20:04:49 18 1002 184 0 SO 0 49.4 407
20:07:50 18 1003 182 0 SO 0 49.9 407
20:10:48 18 1003 181 0 N 0 50 404
20:13:48 18 1002 183 0 NW 0 50.2 404
20:16:48 18 1003 186 0 N 0 50.8 407
20:19:47 18 1003 186 0 N 0 51 405
20:22:48 18 1003 185 0 N 0 51.1 407
20:25:47 18 1003 183 0 N 0 50.8 404
20:28:50 18 1003 178 0 SO 0 51 407
20:31:55 17 1002 172 0 SO 0 51.3 407
20:34:48 17 1003 167 0 O 0 51.5 404
20:37:46 17 1003 163 0 O 0 52 407
20:40:49 17 1002 160 0 O 0 52.7 404
20:43:49 17 1002 156 0 NO 0 53.8 406
20:46:48 17 1002 150 1 N 0 55.4 406
20:49:48 17 1003 143 0 NO 0 55.7 407
20:52:48 17 1003 134 2 NO 0 56.3 407
20:55:48 17 1003 123 2 NO 0 57.9 406
20:58:48 17 1003 111 2 N 0 58.4 404
21:01:47 16 1003 97 2 O 0 58.2 405
21:04:50 16 1003 84 1 NO 0 59 406
21:07:46 16 1003 42 0 O 0 59.3 404
21:10:50 16 1004 59 0 O 0 59.7 407
21:13:46 16 1003 47 1 NO 0 59.7 407
21:16:49 16 1003 38 1 NO 0 59.8 401
21:19:49 15 1003 29 2 NO 0 60.8 406
21:22:49 15 1003 22 0 NO 0 61.4 404
21:25:49 15 1003 17 0 NO 0 61.2 403
21:28:48 15 1003 13 2 N 0 61.2 404
21:31:46 15 1003 9 1 NO 0 62 407
21:34:46 15 1003 7 0 NO 0 62.5 407
21:37:49 14 1003 6 0 NO 0 62.5 405
21:40:46 14 1003 4 0 NO 0 63.1 410
21:43:46 14 1003 4 0 NO 0 63.8 411
21:46:48 14 1003 3 0 NO 0 64.8 410
21:49:46 14 1003 3 0 NO 0 65 415
21:52:45 14 1002 3 0 NO 0 65.2 439
21:55:48 13 1003 0 1 NO 0 66.2 448
21:58:44 13 1003 0 2 N 0 66.6 451
22:01:47 13 1003 0 0 N 0 66.7 445
22:04:45 13 1002 0 0 N 0 66.3 451
22:07:47 13 1003 0 0 NO 0 66.1 459
22:10:46 13 1002 0 0 O 0 66.2 465
22:13:46 13 1003 0 0 O 0 66 472
22:16:48 13 1003 0 0 O 0 65.4 480
22:19:47 13 1003 0 0 NO 0 65.2 486
22:22:48 13 1003 0 0 NO 0 65.4 497
22:25:48 13 1003 0 0 NO 0 65.5 501
22:28:50 13 1003 0 0 NO 0 65.4 507
22:31:50 13 1004 0 0 NO 0 65.1 509
22:34:45 13 1004 0 0 NO 0 65.1 516
22:37:50 13 1003 0 0 NO 0 65.6 516
22:40:45 12 1003 0 0 NO 0 65.4 521
22:43:47 12 1003 0 0 NO 0 65.6 524
22:46:48 12 1003 0 0 NO 0 65.7 527
22:49:47 12 1003 0 0 NO 0 65.7 528
22:52:48 12 1003 0 0 NO 0 65.7 536
22:55:47 12 1003 0 0 NO 0 66.2 541
22:58:48 12 1003 0 0 NO 0 66.2 548
23:01:49 12 1003 0 0 NO 0 66.6 550
23:04:47 12 1003 0 0 NO 0 67 550
23:07:46 12 1003 0 0 NO 0 67.5 553
23:10:49 12 1003 0 1 NO 0 67.8 553
23:13:47 12 1003 0 0 NO 0 68.2 550
23:16:46 12 1004 0 0 NO 0 67.8 545
23:19:46 11 1003 0 0 NO 0 67.7 548
23:22:46 11 1003 0 0 NO 0 67.9 551
23:25:47 11 1003 0 0 NO 0 68.2 553
23:28:47 11 1003 0 0 NO 0 68.3 552
23:31:47 11 1003 0 0 NO 0 68.3 548
23:34:48 11 1003 0 0 NO 0 68.9 545
23:37:45 11 1003 0 0 NO 0 68.9 541
23:40:45 11 1002 0 0 NO 0 68.9 544
23:43:49 11 1003 0 0 NO 0 69.2 542
23:46:45 11 1003 0 0 NO 0 69.4 541
23:49:47 11 1003 0 0 NO 0 69.1 548
23:52:47 11 1003 0 0 NO 0 70.4 550
23:55:47 11 1003 0 0 NO 0 70.2 553
23:58:46 11 1003 0 0 NO 0 70 550

Letzte Änderung : 04-Jan-2022
Copyright Jens Köhler, Wolfsburg, Obere Dorfstraße 10d